TimeCST,TemperatureF,Dew PointF,Humidity,Sea Level PressureIn,VisibilityMPH,Wind Direction,Wind SpeedMPH,Gust SpeedMPH,PrecipitationIn,Events,Conditions,WindDirDegrees,DateUTC
12:15 AM,12.6,9.0,85,30.21,10.0,Calm,Calm,-,N/A,,Clear,0,2013-12-30 06:15:00
12:35 AM,13.3,9.1,84,30.21,10.0,Calm,Calm,-,N/A,,Clear,0,2013-12-30 06:35:00
12:55 AM,12.9,9.1,85,30.20,10.0,Calm,Calm,-,N/A,,Clear,0,2013-12-30 06:55:00
1:15 AM,13.1,9.5,86,30.20,10.0,WSW,3.5,-,N/A,,Clear,240,2013-12-30 07:15:00
1:35 AM,13.1,9.7,86,30.19,10.0,Calm,Calm,-,N/A,,Clear,0,2013-12-30 07:35:00
1:55 AM,12.9,9.1,85,30.18,10.0,Calm,Calm,-,N/A,,Clear,0,2013-12-30 07:55:00
2:15 AM,14.0,10.2,85,30.18,10.0,Calm,Calm,-,N/A,,Clear,0,2013-12-30 08:15:00
2:35 AM,13.8,10.2,86,30.18,10.0,Calm,Calm,-,N/A,,Clear,0,2013-12-30 08:35:00
2:55 AM,13.6,9.9,85,30.18,10.0,SW,3.5,-,N/A,,Clear,220,2013-12-30 08:55:00
3:15 AM,11.3,7.7,85,30.18,10.0,Calm,Calm,-,N/A,,Clear,0,2013-12-30 09:15:00
3:35 AM,11.7,8.6,88,30.18,10.0,Calm,Calm,-,N/A,,Clear,0,2013-12-30 09:35:00
3:55 AM,12.4,8.4,84,30.17,10.0,South,3.5,-,N/A,,Clear,190,2013-12-30 09:55:00
4:15 AM,12.4,9.0,86,30.17,10.0,Calm,Calm,-,N/A,,Clear,0,2013-12-30 10:15:00
4:35 AM,12.9,9.3,86,30.16,10.0,Calm,Calm,-,N/A,,Clear,0,2013-12-30 10:35:00
4:55 AM,13.1,9.1,84,30.14,10.0,SW,3.5,-,N/A,,Clear,230,2013-12-30 10:55:00
5:15 AM,14.0,10.0,84,30.13,10.0,Calm,Calm,-,N/A,,Clear,0,2013-12-30 11:15:00
5:35 AM,14.0,10.2,85,30.13,10.0,Calm,Calm,-,N/A,,Clear,0,2013-12-30 11:35:00
5:55 AM,14.7,10.6,84,30.12,10.0,Calm,Calm,-,N/A,,Clear,0,2013-12-30 11:55:00
6:15 AM,14.9,10.4,82,30.12,10.0,Calm,Calm,-,N/A,,Clear,0,2013-12-30 12:15:00
6:35 AM,14.9,10.4,82,30.13,10.0,Calm,Calm,-,N/A,,Clear,0,2013-12-30 12:35:00
6:55 AM,12.2,8.4,85,30.12,10.0,Calm,Calm,-,N/A,,Clear,0,2013-12-30 12:55:00
7:15 AM,11.3,7.7,85,30.13,10.0,Calm,Calm,-,N/A,,Clear,0,2013-12-30 13:15:00
7:35 AM,13.6,9.7,84,30.14,10.0,Calm,Calm,-,N/A,,Clear,0,2013-12-30 13:35:00
7:55 AM,12.2,8.2,84,30.15,10.0,Calm,Calm,-,N/A,,Clear,0,2013-12-30 13:55:00
8:15 AM,14.0,9.7,83,30.17,10.0,Calm,Calm,-,N/A,,Clear,0,2013-12-30 14:15:00
8:35 AM,15.8,12.0,85,30.18,10.0,Calm,Calm,-,N/A,,Clear,0,2013-12-30 14:35:00
8:55 AM,18.3,13.8,83,30.18,10.0,South,3.5,-,N/A,,Clear,170,2013-12-30 14:55:00
9:15 AM,21.6,16.5,81,30.18,10.0,Calm,Calm,-,N/A,,Clear,0,2013-12-30 15:15:00
9:35 AM,-9999,-9999,N/A,30.19,-9999.0,Calm,Calm,-,N/A,,Unknown,0,2013-12-30 15:35:00
9:55 AM,-9999,-9999,N/A,-9999,-9999.0,West,3.5,-,N/A,,Unknown,260,2013-12-30 15:55:00
10:15 AM,28.6,20.5,72,30.21,10.0,Calm,Calm,-,N/A,,Clear,0,2013-12-30 16:15:00
10:35 AM,30.6,20.8,67,30.21,10.0,NW,5.8,-,N/A,,Clear,320,2013-12-30 16:35:00
10:55 AM,32.9,21.0,62,30.22,10.0,WNW,10.4,-,N/A,,Clear,300,2013-12-30 16:55:00
11:15 AM,34.7,21.0,57,30.21,10.0,NW,10.4,-,N/A,,Clear,320,2013-12-30 17:15:00
11:35 AM,36.1,21.4,55,30.21,10.0,WNW,8.1,-,N/A,,Clear,300,2013-12-30 17:35:00
11:55 AM,38.5,21.9,51,30.21,10.0,NW,8.1,-,N/A,,Clear,310,2013-12-30 17:55:00
12:15 PM,39.7,22.3,50,30.20,10.0,NW,10.4,-,N/A,,Clear,310,2013-12-30 18:15:00
12:35 PM,42.3,22.1,45,30.19,10.0,NW,10.4,-,N/A,,Clear,310,2013-12-30 18:35:00
12:55 PM,45.5,21.7,39,30.19,10.0,North,8.1,-,N/A,,Clear,350,2013-12-30 18:55:00
1:15 PM,48.4,20.1,33,30.18,10.0,North,15.0,-,N/A,,Clear,10,2013-12-30 19:15:00
1:35 PM,49.5,20.1,31,30.18,10.0,North,13.8,19.6,N/A,,Clear,10,2013-12-30 19:35:00
1:55 PM,50.7,20.1,30,30.18,10.0,North,15.0,18.4,N/A,,Clear,10,2013-12-30 19:55:00
2:15 PM,51.1,20.1,30,30.18,10.0,North,11.5,-,N/A,,Clear,10,2013-12-30 20:15:00
2:55 PM,52.3,22.3,31,30.19,10.0,NE,10.4,16.1,N/A,,Clear,40,2013-12-30 20:55:00
3:15 PM,52.0,22.5,32,30.20,10.0,NNE,8.1,-,N/A,,Clear,30,2013-12-30 21:15:00
3:35 PM,52.3,22.3,31,30.20,10.0,NNE,9.2,-,N/A,,Clear,30,2013-12-30 21:35:00
3:55 PM,51.8,22.3,32,30.21,10.0,North,10.4,-,N/A,,Clear,10,2013-12-30 21:55:00
4:15 PM,51.8,22.8,32,30.22,10.0,NNW,5.8,-,N/A,,Clear,340,2013-12-30 22:15:00
4:35 PM,51.8,23.2,33,30.22,10.0,North,4.6,-,N/A,,Clear,10,2013-12-30 22:35:00
4:55 PM,50.7,23.0,34,30.23,10.0,NNW,8.1,-,N/A,,Clear,340,2013-12-30 22:55:00
5:15 PM,48.6,22.6,36,30.24,10.0,NNW,3.5,-,N/A,,Clear,340,2013-12-30 23:15:00
5:35 PM,47.5,22.8,38,30.24,10.0,Calm,Calm,-,N/A,,Clear,0,2013-12-30 23:35:00
5:55 PM,45.5,22.6,41,30.24,10.0,Calm,Calm,-,N/A,,Clear,0,2013-12-30 23:55:00
6:15 PM,40.8,22.1,47,30.25,10.0,SSE,5.8,-,N/A,,Clear,160,2013-12-31 00:15:00
6:35 PM,36.7,21.6,54,30.26,10.0,South,4.6,-,N/A,,Clear,170,2013-12-31 00:35:00
6:55 PM,32.2,20.8,63,30.27,10.0,Calm,Calm,-,N/A,,Clear,0,2013-12-31 00:55:00
7:15 PM,32.2,21.4,64,30.28,10.0,SW,4.6,-,N/A,,Clear,230,2013-12-31 01:15:00
7:35 PM,33.3,22.1,64,30.28,10.0,SW,5.8,-,N/A,,Clear,220,2013-12-31 01:35:00
7:55 PM,29.1,20.7,71,30.30,10.0,SW,5.8,-,N/A,,Clear,220,2013-12-31 01:55:00
8:15 PM,30.6,21.2,68,30.31,10.0,SW,3.5,-,N/A,,Clear,220,2013-12-31 02:15:00
8:35 PM,29.3,21.2,72,30.32,10.0,SW,4.6,-,N/A,,Clear,220,2013-12-31 02:35:00
8:55 PM,29.7,21.4,71,30.33,10.0,WSW,4.6,-,N/A,,Clear,240,2013-12-31 02:55:00
9:15 PM,29.3,21.2,72,30.33,10.0,Calm,Calm,-,N/A,,Clear,0,2013-12-31 03:15:00
9:35 PM,28.8,21.2,73,30.33,10.0,Calm,Calm,-,N/A,,Clear,0,2013-12-31 03:35:00
9:55 PM,28.6,21.4,74,30.34,10.0,Calm,Calm,-,N/A,,Clear,0,2013-12-31 03:55:00
10:15 PM,28.4,21.2,74,30.34,10.0,West,4.6,-,N/A,,Clear,260,2013-12-31 04:15:00
10:35 PM,28.8,21.2,73,30.35,10.0,Calm,Calm,-,N/A,,Clear,0,2013-12-31 04:35:00
10:55 PM,30.0,21.9,72,30.35,10.0,Calm,Calm,-,N/A,,Clear,0,2013-12-31 04:55:00
11:15 PM,29.8,21.9,72,30.35,10.0,Calm,Calm,-,N/A,,Clear,0,2013-12-31 05:15:00
11:35 PM,28.9,21.2,73,30.34,10.0,Calm,Calm,-,N/A,,Clear,0,2013-12-31 05:35:00
11:55 PM,29.5,21.6,72,30.34,10.0,Calm,Calm,-,N/A,,Clear,0,2013-12-31 05:55:00